Tracking 20942 objects as of 10-Jul-2020
HD Live streaming from Space Station
objects crossing your sky now

COSMOS 1288

Track COSMOS 1288 now!
10-day predictions
COSMOS 1288 is classified as:


NORAD ID: 12637
Int'l Code: 1981-074B
Perigee: 1,471.3 km
Apogee: 1,499.8 km
Inclination: 74.0 °
Period: 115.5 minutes
Semi major axis: 7856 km
RCS: 0.6864 m2 (medium)
Launch date: August 6, 1981
Source: Commonwealth of Independent States (former USSR) (CIS)
Launch site: PLESETSK MISSILE AND SPACE COMPLEX (PKMTR)
aabbcc
Your satellite tracking list
Your tracking list is empty




NASA's NSSDC Master Catalog

Two Line Element Set (TLE):
1 12637U 81074B   20191.89412562 -.00000004 +00000-0 +83907-4 0  9995
2 12637 074.0340 091.5282 0018157 273.2903 157.8339 12.46673788771412
Source of the keplerian elements: AFSPC